| time (UTC) | temp F | wind direction | speed knots | gust knots | rain 1hr in | rain 24hr in | rain mn in | humidity % | barometer mb |
| 20260906214524 | 71 | 146 | 10.4 | 20.9 | 0.00 | 0.00 | 0.00 | 47 | 723.0 |
| 20260906214024 | 72 | 144 | 9.6 | 18.2 | 0.00 | 0.00 | 0.00 | 46 | 723.0 |
| 20260906213750 | 71 | 151 | 9.6 | 18.2 | 0.00 | 0.00 | 0.00 | 49 | 723.1 |
| 20260906213022 | 71 | 176 | 11.3 | 17.4 | 0.00 | 0.00 | 0.00 | 51 | 723.1 |
| 20260906212521 | 71 | 163 | 11.3 | 18.2 | 0.00 | 0.00 | 0.00 | 50 | 723.1 |
| 20260906212020 | 71 | 158 | 10.4 | 18.2 | 0.00 | 0.00 | 0.00 | 50 | 723.2 |
| 20260906211747 | 71 | 164 | 11.3 | 20.9 | 0.00 | 0.00 | 0.00 | 49 | 723.2 |
| 20260906211020 | 70 | 163 | 11.3 | 20.9 | 0.00 | 0.00 | 0.00 | 52 | 723.2 |
| 20260906210519 | 71 | 175 | 9.6 | 19.1 | 0.00 | 0.00 | 0.00 | 52 | 723.1 |
| 20260906210019 | 70 | 137 | 10.4 | 17.4 | 0.00 | 0.00 | 0.00 | 52 | 723.2 |
| 20260906205520 | 70 | 128 | 9.6 | 17.4 | 0.00 | 0.00 | 0.00 | 53 | 723.2 |
| 20260906205239 | 70 | 161 | 9.6 | 16.5 | 0.00 | 0.00 | 0.00 | 53 | 723.2 |
| 20260906204515 | 70 | 128 | 9.6 | 18.2 | 0.00 | 0.00 | 0.00 | 53 | 723.3 |
| 20260906204013 | 70 | 154 | 9.6 | 19.1 | 0.00 | 0.00 | 0.00 | 53 | 723.4 |
| 20260906203513 | 70 | 130 | 10.4 | 19.1 | 0.00 | 0.00 | 0.00 | 54 | 723.4 |
| 20260906203234 | 71 | 162 | 7.8 | 14.8 | 0.00 | 0.00 | 0.00 | 52 | 723.5 |
| 20260906202514 | 71 | 178 | 7.0 | 15.6 | 0.00 | 0.00 | 0.00 | 54 | 723.5 |
| 20260906202013 | 70 | 146 | 7.8 | 15.6 | 0.00 | 0.00 | 0.00 | 55 | 723.5 |
| 20260906201956 | 71 | 121 | 7.8 | 15.6 | 0.00 | 0.00 | 0.00 | 55 | 723.5 |
| 20260906201014 | 71 | 153 | 7.8 | 15.6 | 0.00 | 0.00 | 0.00 | 56 | 723.5 |
| 20260906200514 | 71 | 165 | 7.0 | 14.8 | 0.00 | 0.00 | 0.00 | 54 | 723.6 |
| 20260906200232 | 70 | 172 | 7.8 | 17.4 | 0.00 | 0.00 | 0.00 | 55 | 723.5 |
| 20260906195509 | 70 | 128 | 7.8 | 17.4 | 0.00 | 0.00 | 0.00 | 55 | 723.6 |
| 20260906195010 | 70 | 154 | 7.8 | 15.6 | 0.00 | 0.00 | 0.00 | 54 | 723.6 |
| 20260906194510 | 70 | 194 | 8.7 | 13.9 | 0.00 | 0.00 | 0.00 | 52 | 723.7 |
| 20260906194009 | 70 | 158 | 8.7 | 17.4 | 0.00 | 0.00 | 0.00 | 53 | 723.7 |
| 20260906193509 | 71 | 188 | 7.8 | 17.4 | 0.00 | 0.00 | 0.00 | 53 | 723.7 |
| 20260906193010 | 71 | 178 | 7.0 | 14.8 | 0.00 | 0.00 | 0.00 | 52 | 723.7 |
| 20260906192510 | 70 | 136 | 5.2 | 11.3 | 0.00 | 0.00 | 0.00 | 51 | 723.7 |
| 20260906192010 | 70 | 106 | 5.2 | 13.0 | 0.00 | 0.00 | 0.00 | 51 | 723.7 |
| 20260906191509 | 70 | 188 | 7.0 | 14.8 | 0.00 | 0.00 | 0.00 | 52 | 723.8 |
| 20260906191009 | 69 | 181 | 7.0 | 14.8 | 0.00 | 0.00 | 0.00 | 53 | 723.9 |
| 20260906190510 | 69 | 131 | 7.0 | 14.8 | 0.00 | 0.00 | 0.00 | 53 | 723.9 |
| 20260906190009 | 70 | 167 | 7.0 | 13.0 | 0.00 | 0.00 | 0.00 | 52 | 723.9 |
| 20260906185509 | 70 | 145 | 7.0 | 13.9 | 0.00 | 0.00 | 0.00 | 53 | 723.9 |
| 20260906185011 | 70 | 144 | 7.0 | 13.9 | 0.00 | 0.00 | 0.00 | 51 | 724.0 |
| 20260906184510 | 70 | 159 | 6.1 | 13.0 | 0.00 | 0.00 | 0.00 | 54 | 724.1 |
| 20260906184454 | 70 | 133 | 6.1 | 13.0 | 0.00 | 0.00 | 0.00 | 54 | 724.2 |
| 20260906183733 | 70 | 194 | 6.1 | 13.0 | 0.00 | 0.00 | 0.00 | 50 | 724.2 |
| 20260906183008 | 70 | 191 | 5.2 | 2.6 | 0.00 | 0.00 | 0.00 | 52 | 724.3 |
| 20260906182133 | 69 | 178 | 6.1 | 13.0 | 0.00 | 0.00 | 0.00 | 50 | 724.4 |
| 20260906181849 | 69 | 234 | 6.1 | 12.2 | 0.00 | 0.00 | 0.00 | 52 | 724.4 |
| 20260906181133 | 69 | 145 | 7.0 | 12.2 | 0.00 | 0.00 | 0.00 | 51 | 724.5 |
| 20260906180634 | 69 | 150 | 6.1 | 9.6 | 0.00 | 0.00 | 0.00 | 54 | 724.6 |
| 20260906180133 | 69 | 163 | 5.2 | 9.6 | 0.00 | 0.00 | 0.00 | 53 | 724.6 |
| 20260906175900 | 69 | 186 | 5.2 | 10.4 | 0.00 | 0.00 | 0.00 | 53 | 724.6 |
| 20260906175129 | 69 | 239 | 5.2 | 10.4 | 0.00 | 0.00 | 0.00 | 52 | 724.7 |
| 20260906174630 | 68 | 152 | 4.3 | 10.4 | 0.00 | 0.00 | 0.00 | 54 | 724.7 |
| 20260906174129 | 68 | 179 | 3.5 | 8.7 | 0.00 | 0.00 | 0.00 | 53 | 724.8 |
| 20260906173630 | 68 | 208 | 2.6 | 6.1 | 0.00 | 0.00 | 0.00 | 51 | 724.8 |
| 20260906173129 | 68 | 63 | 2.6 | 6.1 | 0.00 | 0.00 | 0.00 | 52 | 724.8 |
| 20260906172630 | 68 | 75 | 2.6 | 6.1 | 0.00 | 0.00 | 0.00 | 50 | 724.9 |
| 20260906172355 | 68 | 112 | 2.6 | 7.8 | 0.00 | 0.00 | 0.00 | 49 | 724.9 |
| 20260906171629 | 67 | 80 | 3.5 | 7.8 | 0.00 | 0.00 | 0.00 | 52 | 724.9 |
| 20260906171130 | 67 | 110 | 3.5 | 7.0 | 0.00 | 0.00 | 0.00 | 51 | 724.9 |
| 20260906170849 | 67 | 92 | 2.6 | 6.1 | 0.00 | 0.00 | 0.00 | 53 | 724.9 |
| 20260906170126 | 67 | 115 | 2.6 | 6.1 | 0.00 | 0.00 | 0.00 | 51 | 724.9 |
| 20260906165625 | 67 | 148 | 3.5 | 6.1 | 0.00 | 0.00 | 0.00 | 50 | 724.9 |
| 20260906165125 | 67 | 100 | 4.3 | 7.0 | 0.00 | 0.00 | 0.00 | 50 | 724.9 |
| 20260906164625 | 67 | 117 | 3.5 | 7.0 | 0.00 | 0.00 | 0.00 | 53 | 724.9 |
| 20260906164126 | 67 | 86 | 3.5 | 7.0 | 0.00 | 0.00 | 0.00 | 51 | 724.9 |
| 20260906163625 | 67 | 71 | 2.6 | 7.0 | 0.00 | 0.00 | 0.00 | 51 | 724.9 |
| 20260906163125 | 68 | 115 | 2.6 | 6.1 | 0.00 | 0.00 | 0.00 | 48 | 724.9 |
| 20260906162626 | 67 | 132 | 2.6 | 6.1 | 0.00 | 0.00 | 0.00 | 50 | 724.9 |
| 20260906162121 | 67 | 104 | 2.6 | 6.1 | 0.00 | 0.00 | 0.00 | 49 | 724.8 |
| 20260906161621 | 67 | 94 | 3.5 | 8.7 | 0.00 | 0.00 | 0.00 | 50 | 724.8 |
| 20260906161122 | 67 | 43 | 5.2 | 8.7 | 0.00 | 0.00 | 0.00 | 52 | 724.8 |
| 20260906160622 | 66 | 68 | 3.5 | 8.7 | 0.00 | 0.00 | 0.00 | 50 | 724.8 |
| 20260906160121 | 66 | 82 | 2.6 | 5.2 | 0.00 | 0.00 | 0.00 | 52 | 724.7 |
| 20260906155622 | 65 | 9 | 3.5 | 7.0 | 0.00 | 0.00 | 0.00 | 51 | 724.6 |
| 20260906155122 | 66 | 61 | 4.3 | 7.0 | 0.00 | 0.00 | 0.00 | 51 | 724.6 |
| 20260906154622 | 66 | 74 | 3.5 | 7.0 | 0.00 | 0.00 | 0.00 | 50 | 724.6 |
| 20260906154122 | 67 | 59 | 3.5 | 7.8 | 0.00 | 0.00 | 0.00 | 51 | 724.6 |
| 20260906153621 | 66 | 88 | 3.5 | 7.8 | 0.00 | 0.00 | 0.00 | 49 | 724.6 |
| 20260906153123 | 67 | 110 | 2.6 | 6.1 | 0.00 | 0.00 | 0.00 | 48 | 724.6 |
| 20260906153055 | 67 | 80 | 2.6 | 4.3 | 0.00 | 0.00 | 0.00 | 50 | 724.6 |
| 20260906152340 | 66 | 80 | 2.6 | 3.5 | 0.00 | 0.00 | 0.00 | 49 | 724.6 |
| 20260906151621 | 66 | 53 | 1.7 | 5.2 | 0.00 | 0.00 | 0.00 | 49 | 724.6 |
| 20260906151120 | 66 | 27 | 2.6 | 7.0 | 0.00 | 0.00 | 0.00 | 51 | 724.6 |
| 20260906150621 | 66 | 103 | 2.6 | 7.0 | 0.00 | 0.00 | 0.00 | 50 | 724.6 |
| 20260906150119 | 65 | 115 | 1.7 | 4.3 | 0.00 | 0.00 | 0.00 | 49 | 724.6 |
| 20260906145619 | 65 | 45 | 1.7 | 4.3 | 0.00 | 0.00 | 0.00 | 49 | 724.5 |
| 20260906145113 | 65 | 9 | 2.6 | 3.5 | 0.00 | 0.00 | 0.00 | 49 | 724.5 |
| 20260906144614 | 66 | 40 | 2.6 | 5.2 | 0.00 | 0.00 | 0.00 | 49 | 724.5 |
| 20260906144112 | 65 | 82 | 3.5 | 7.8 | 0.00 | 0.00 | 0.00 | 51 | 724.5 |
| 20260906144055 | 65 | 97 | 3.5 | 7.8 | 0.00 | 0.00 | 0.00 | 50 | 724.5 |
| 20260906143339 | 65 | 88 | 1.7 | 7.0 | 0.00 | 0.00 | 0.00 | 53 | 724.5 |
| 20260906142613 | 64 | 49 | 0.9 | 3.5 | 0.00 | 0.00 | 0.00 | 51 | 724.4 |
| 20260906142348 | 64 | 308 | 0.9 | 2.6 | 0.00 | 0.00 | 0.00 | 52 | 724.4 |
| 20260906141613 | 63 | 5 | 1.7 | 4.3 | 0.00 | 0.00 | 0.00 | 55 | 724.4 |
| 20260906141336 | 63 | 44 | 3.5 | 7.8 | 0.00 | 0.00 | 0.00 | 52 | 724.4 |
| 20260906140609 | 63 | 55 | 4.3 | 7.8 | 0.00 | 0.00 | 0.00 | 54 | 724.3 |
| 20260906140109 | 63 | 44 | 3.5 | 7.8 | 0.00 | 0.00 | 0.00 | 53 | 724.3 |
| 20260906135834 | 62 | 40 | 2.6 | 4.3 | 0.00 | 0.00 | 0.00 | 54 | 724.2 |
| 20260906135108 | 62 | 13 | 3.5 | 5.2 | 0.00 | 0.00 | 0.00 | 54 | 724.2 |
| 20260906134609 | 62 | 355 | 4.3 | 7.0 | 0.00 | 0.00 | 0.00 | 54 | 724.2 |
| 20260906134110 | 61 | 344 | 4.3 | 7.0 | 0.00 | 0.00 | 0.00 | 53 | 724.1 |
| 20260906133912 | 61 | 355 | 4.3 | 7.0 | 0.00 | 0.00 | 0.00 | 54 | 724.1 |
| 20260906133816 | 61 | 346 | 4.3 | 7.8 | 0.00 | 0.00 | 0.00 | 55 | 724.1 |
| 20260906132605 | 60 | 355 | 5.2 | 8.7 | 0.00 | 0.00 | 0.00 | 54 | 724.1 |
| 20260906132104 | 60 | 355 | 5.2 | 8.7 | 0.00 | 0.00 | 0.00 | 56 | 724.0 |
| 20260906131604 | 60 | 355 | 5.2 | 7.8 | 0.00 | 0.00 | 0.00 | 56 | 723.9 |
| 20260906131103 | 60 | 333 | 5.2 | 7.8 | 0.00 | 0.00 | 0.00 | 57 | 723.9 |
| 20260906130603 | 60 | 332 | 4.3 | 7.8 | 0.00 | 0.00 | 0.00 | 57 | 723.9 |
| 20260906125603 | 59 | 329 | 4.3 | 7.0 | 0.00 | 0.00 | 0.00 | 57 | 723.9 |
| 20260906125104 | 59 | 348 | 5.2 | 7.8 | 0.00 | 0.00 | 0.00 | 57 | 723.8 |
| 20260906124602 | 59 | 350 | 6.1 | 7.8 | 0.00 | 0.00 | 0.00 | 56 | 723.8 |
| 20260906124100 | 59 | 343 | 6.1 | 8.7 | 0.00 | 0.00 | 0.00 | 56 | 723.9 |
| 20260906123559 | 59 | 350 | 6.1 | 8.7 | 0.00 | 0.00 | 0.00 | 56 | 723.8 |
| 20260906123058 | 59 | 341 | 6.1 | 8.7 | 0.00 | 0.00 | 0.00 | 57 | 723.8 |
| 20260906122549 | 59 | 5 | 6.1 | 8.7 | 0.00 | 0.00 | 0.00 | 58 | 723.8 |
| 20260906122050 | 59 | 0 | 5.2 | 8.7 | 0.00 | 0.00 | 0.00 | 57 | 723.8 |
| 20260906121549 | 59 | 346 | 5.2 | 7.8 | 0.00 | 0.00 | 0.00 | 57 | 723.7 |
| 20260906121314 | 59 | 355 | 5.2 | 7.8 | 0.00 | 0.00 | 0.00 | 57 | 723.7 |
| 20260906120548 | 59 | 345 | 5.2 | 7.0 | 0.00 | 0.00 | 0.00 | 57 | 723.7 |
| 20260906120050 | 60 | 346 | 5.2 | 7.0 | 0.00 | 0.00 | 0.00 | 57 | 723.7 |
| 20260906115549 | 60 | 341 | 4.3 | 7.0 | 0.00 | 0.00 | 0.00 | 58 | 723.6 |
| 20260906115047 | 60 | 340 | 4.3 | 5.2 | 0.00 | 0.00 | 0.00 | 58 | 723.6 |
| 20260906114546 | 60 | 355 | 4.3 | 5.2 | 0.00 | 0.00 | 0.00 | 58 | 723.7 |
| 20260906114046 | 60 | 355 | 4.3 | 6.1 | 0.00 | 0.00 | 0.00 | 58 | 723.7 |
| 20260906113545 | 60 | 355 | 3.5 | 6.1 | 0.00 | 0.00 | 0.00 | 58 | 723.7 |
| 20260906113044 | 60 | 5 | 2.6 | 4.3 | 0.00 | 0.00 | 0.00 | 58 | 723.7 |
| 20260906112544 | 60 | 342 | 1.7 | 3.5 | 0.00 | 0.00 | 0.00 | 58 | 723.6 |
| 20260906112040 | 60 | 332 | 0.9 | 2.6 | 0.00 | 0.00 | 0.00 | 60 | 723.7 |
| 20260906111801 | 60 | 291 | 0.0 | 0.0 | 0.00 | 0.00 | 0.00 | 59 | 723.7 |
| 20260906111038 | 60 | 291 | 0.9 | 2.6 | 0.00 | 0.00 | 0.00 | 59 | 723.6 |
| 20260906110536 | 60 | 291 | 1.7 | 2.6 | 0.00 | 0.00 | 0.00 | 59 | 723.6 |
| 20260906110256 | 60 | 285 | 1.7 | 3.5 | 0.00 | 0.00 | 0.00 | 59 | 723.6 |
| 20260906105534 | 60 | 314 | 2.6 | 6.1 | 0.00 | 0.00 | 0.00 | 59 | 723.6 |
| 20260906105032 | 60 | 313 | 3.5 | 6.1 | 0.00 | 0.00 | 0.00 | 60 | 723.6 |
| 20260906104533 | 60 | 319 | 3.5 | 6.1 | 0.00 | 0.00 | 0.00 | 60 | 723.6 |
| 20260906104033 | 60 | 314 | 3.5 | 7.0 | 0.00 | 0.00 | 0.00 | 60 | 723.6 |
| 20260906103528 | 60 | 309 | 3.5 | 7.8 | 0.00 | 0.00 | 0.00 | 60 | 723.6 |
| 20260906103028 | 59 | 327 | 4.3 | 7.8 | 0.00 | 0.00 | 0.00 | 60 | 723.6 |
| 20260906102527 | 59 | 329 | 6.1 | 9.6 | 0.00 | 0.00 | 0.00 | 60 | 723.6 |
| 20260906102026 | 59 | 322 | 6.1 | 9.6 | 0.00 | 0.00 | 0.00 | 58 | 723.6 |
| 20260906101526 | 60 | 342 | 5.2 | 9.6 | 0.00 | 0.00 | 0.00 | 60 | 723.6 |
| 20260906101027 | 60 | 336 | 6.1 | 9.6 | 0.00 | 0.00 | 0.00 | 61 | 723.6 |
| 20260906100527 | 60 | 0 | 5.2 | 8.7 | 0.00 | 0.00 | 0.00 | 61 | 723.7 |
| 20260906100244 | 60 | 0 | 5.2 | 7.8 | 0.00 | 0.00 | 0.00 | 60 | 723.8 |
| 20260906095528 | 60 | 346 | 4.3 | 7.0 | 0.00 | 0.00 | 0.00 | 58 | 723.8 |
| 20260906095245 | 61 | 349 | 4.3 | 7.0 | 0.00 | 0.00 | 0.00 | 59 | 723.7 |
| 20260906094523 | 61 | 10 | 3.5 | 7.0 | 0.00 | 0.00 | 0.00 | 58 | 723.8 |
| 20260906094025 | 61 | 21 | 3.5 | 4.3 | 0.00 | 0.00 | 0.00 | 56 | 723.8 |
| 20260906093744 | 61 | 44 | 2.6 | 3.5 | 0.00 | 0.00 | 0.00 | 56 | 723.8 |
| 20260906093022 | 61 | 49 | 1.7 | 3.5 | 0.00 | 0.00 | 0.00 | 55 | 723.8 |
| 20260906092523 | 61 | 59 | 2.6 | 3.5 | 0.00 | 0.00 | 0.00 | 55 | 723.8 |
| 20260906092023 | 61 | 101 | 2.6 | 5.2 | 0.00 | 0.00 | 0.00 | 55 | 723.7 |
| 20260906092008 | 62 | 107 | 2.6 | 5.2 | 0.00 | 0.00 | 0.00 | 55 | 723.7 |
| 20260906091023 | 62 | 113 | 2.6 | 6.1 | 0.00 | 0.00 | 0.00 | 54 | 723.7 |
| 20260906090740 | 62 | 119 | 4.3 | 7.0 | 0.00 | 0.00 | 0.00 | 54 | 723.7 |
| 20260906090020 | 63 | 134 | 5.2 | 7.8 | 0.00 | 0.00 | 0.00 | 53 | 723.8 |
| 20260906085520 | 63 | 164 | 5.2 | 7.8 | 0.00 | 0.00 | 0.00 | 53 | 723.8 |
| 20260906085254 | 63 | 153 | 4.3 | 7.0 | 0.00 | 0.00 | 0.00 | 52 | 723.8 |
| 20260906084519 | 63 | 158 | 4.3 | 7.0 | 0.00 | 0.00 | 0.00 | 52 | 723.8 |
| 20260906084018 | 63 | 176 | 3.5 | 7.0 | 0.00 | 0.00 | 0.00 | 52 | 723.7 |
| 20260906083518 | 62 | 173 | 4.3 | 7.8 | 0.00 | 0.00 | 0.00 | 53 | 723.8 |
| 20260906083243 | 62 | 181 | 4.3 | 7.8 | 0.00 | 0.00 | 0.00 | 53 | 723.8 |
| 20260906082520 | 62 | 169 | 5.2 | 8.7 | 0.00 | 0.00 | 0.00 | 53 | 723.8 |
| 20260906082014 | 62 | 168 | 4.3 | 8.7 | 0.00 | 0.00 | 0.00 | 53 | 723.8 |
| 20260906081515 | 62 | 177 | 3.5 | 7.0 | 0.00 | 0.00 | 0.00 | 53 | 723.8 |
| 20260906081014 | 62 | 186 | 4.3 | 7.8 | 0.00 | 0.00 | 0.00 | 53 | 723.8 |
| 20260906080516 | 62 | 198 | 4.3 | 7.8 | 0.00 | 0.00 | 0.00 | 54 | 723.8 |
| 20260906080014 | 62 | 167 | 3.5 | 7.8 | 0.00 | 0.00 | 0.00 | 54 | 723.8 |
| 20260906075515 | 62 | 188 | 3.5 | 7.0 | 0.00 | 0.00 | 0.00 | 54 | 723.8 |
| 20260906075233 | 62 | 207 | 3.5 | 7.0 | 0.00 | 0.00 | 0.00 | 54 | 723.8 |
| 20260906074514 | 62 | 190 | 3.5 | 5.2 | 0.00 | 0.00 | 0.00 | 54 | 723.8 |
| 20260906074235 | 62 | 190 | 3.5 | 6.1 | 0.00 | 0.00 | 0.00 | 54 | 723.8 |
| 20260906073734 | 62 | 194 | 4.3 | 6.1 | 0.00 | 0.00 | 0.00 | 55 | 723.7 |
| 20260906073014 | 62 | 192 | 4.3 | 6.1 | 0.00 | 0.00 | 0.00 | 55 | 723.8 |
| 20260906072514 | 62 | 200 | 4.3 | 6.1 | 0.00 | 0.00 | 0.00 | 54 | 723.8 |
| 20260906072235 | 62 | 204 | 4.3 | 7.0 | 0.00 | 0.00 | 0.00 | 53 | 723.8 |
| 20260906071515 | 62 | 184 | 4.3 | 7.0 | 0.00 | 0.00 | 0.00 | 53 | 723.8 |
| 20260906071238 | 62 | 213 | 4.3 | 6.1 | 0.00 | 0.00 | 0.00 | 53 | 723.9 |
| 20260906070514 | 62 | 217 | 4.3 | 6.1 | 0.00 | 0.00 | 0.00 | 53 | 723.9 |
| 20260906070014 | 62 | 223 | 4.3 | 7.0 | 0.00 | 0.00 | 0.00 | 54 | 723.9 |
| 20260906065512 | 62 | 218 | 4.3 | 7.0 | 0.00 | 0.00 | 0.00 | 54 | 723.8 |
| 20260906065011 | 62 | 242 | 4.3 | 7.0 | 0.00 | 0.00 | 0.00 | 55 | 723.9 |
| 20260906064510 | 61 | 242 | 5.2 | 7.8 | 0.00 | 0.00 | 0.00 | 56 | 723.8 |
| 20260906064010 | 61 | 234 | 6.1 | 9.6 | 0.00 | 0.00 | 0.00 | 56 | 723.9 |
| 20260906063952 | 61 | 211 | 7.0 | 9.6 | 0.00 | 0.00 | 0.00 | 56 | 723.9 |
| 20260906063010 | 61 | 221 | 6.1 | 9.6 | 0.00 | 0.00 | 0.00 | 56 | 723.9 |
| 20260906062735 | 61 | 217 | 6.1 | 8.7 | 0.00 | 0.00 | 0.00 | 56 | 723.9 |
| 20260906062010 | 61 | 205 | 7.0 | 11.3 | 0.00 | 0.00 | 0.00 | 56 | 723.9 |
| 20260906061510 | 61 | 219 | 7.8 | 11.3 | 0.00 | 0.00 | 0.00 | 56 | 723.8 |
| 20260906061010 | 61 | 211 | 7.0 | 9.6 | 0.00 | 0.00 | 0.00 | 56 | 723.8 |
| 20260906060509 | 62 | 200 | 6.1 | 5.2 | 0.00 | 0.00 | 0.00 | 57 | 723.9 |
| 20260906055639 | 62 | 193 | 6.1 | 9.6 | 0.00 | 0.00 | 0.00 | 54 | 723.9 |
| 20260906055139 | 62 | 186 | 6.1 | 9.6 | 0.00 | 0.00 | 0.00 | 53 | 724.0 |
| 20260906054639 | 62 | 188 | 6.1 | 9.6 | 0.00 | 0.00 | 0.00 | 52 | 723.9 |
| 20260906054400 | 63 | 172 | 6.1 | 9.6 | 0.00 | 0.00 | 0.00 | 51 | 723.9 |
| 20260906053911 | 63 | 199 | 6.1 | 10.4 | 0.00 | 0.00 | 0.00 | 50 | 723.9 |
| 20260906053135 | 63 | 211 | 6.1 | 10.4 | 0.00 | 0.00 | 0.00 | 50 | 723.9 |
| 20260906052636 | 63 | 200 | 7.0 | 10.4 | 0.00 | 0.00 | 0.00 | 50 | 724.0 |
| 20260906052136 | 63 | 182 | 7.0 | 10.4 | 0.00 | 0.00 | 0.00 | 49 | 724.0 |
| 20260906051635 | 63 | 191 | 7.8 | 12.2 | 0.00 | 0.00 | 0.00 | 51 | 724.1 |
| 20260906051135 | 63 | 201 | 7.8 | 12.2 | 0.00 | 0.00 | 0.00 | 50 | 724.1 |
| 20260906050635 | 63 | 191 | 7.8 | 12.2 | 0.00 | 0.00 | 0.00 | 51 | 724.2 |
| 20260906050134 | 63 | 187 | 7.0 | 11.3 | 0.00 | 0.00 | 0.00 | 53 | 724.2 |
| 20260906045635 | 63 | 198 | 7.0 | 11.3 | 0.00 | 0.00 | 0.00 | 54 | 724.2 |
| 20260906045135 | 63 | 188 | 7.0 | 12.2 | 0.00 | 0.00 | 0.00 | 53 | 724.2 |
| 20260906045117 | 63 | 184 | 8.7 | 13.9 | 0.00 | 0.00 | 0.00 | 54 | 724.2 |
| 20260906044355 | 63 | 194 | 9.6 | 13.9 | 0.00 | 0.00 | 0.00 | 54 | 724.2 |
| 20260906043855 | 63 | 146 | 8.7 | 16.5 | 0.00 | 0.00 | 0.00 | 54 | 724.2 |
| 20260906043131 | 62 | 198 | 8.7 | 16.5 | 0.00 | 0.00 | 0.00 | 55 | 724.1 |
| 20260906042632 | 62 | 185 | 8.7 | 15.6 | 0.00 | 0.00 | 0.00 | 56 | 724.2 |
| 20260906042132 | 62 | 186 | 7.8 | 14.8 | 0.00 | 0.00 | 0.00 | 58 | 724.3 |
| 20260906041631 | 62 | 190 | 7.8 | 12.2 | 0.00 | 0.00 | 0.00 | 59 | 724.3 |
| 20260906041133 | 62 | 188 | 8.7 | 16.5 | 0.00 | 0.00 | 0.00 | 59 | 724.2 |
| 20260906040857 | 62 | 177 | 8.7 | 16.5 | 0.00 | 0.00 | 0.00 | 59 | 724.2 |
| 20260906040127 | 61 | 199 | 6.1 | 11.3 | 0.00 | 0.00 | 0.00 | 63 | 724.3 |
| 20260906035626 | 61 | 173 | 4.3 | 8.7 | 0.00 | 0.00 | 0.00 | 65 | 724.4 |
| 20260906035332 | 62 | 153 | 6.1 | 11.3 | 0.00 | 0.00 | 0.00 | 63 | 724.4 |
| 20260906035218 | 61 | 187 | 5.2 | 9.6 | 0.00 | 0.00 | 0.00 | 65 | 724.4 |
| 20260906034127 | 62 | 157 | 7.0 | 12.2 | 0.00 | 0.00 | 0.00 | 62 | 724.4 |
| 20260906033851 | 62 | 166 | 7.8 | 14.8 | 0.00 | 0.00 | 0.00 | 61 | 724.4 |
| 20260906033127 | 62 | 155 | 7.8 | 14.8 | 0.00 | 0.00 | 0.00 | 61 | 724.3 |
| 20260906032629 | 62 | 177 | 7.0 | 13.0 | 0.00 | 0.00 | 0.00 | 63 | 724.3 |
| 20260906032346 | 62 | 161 | 7.0 | 13.9 | 0.00 | 0.00 | 0.00 | 62 | 724.4 |
| 20260906031623 | 62 | 156 | 7.8 | 13.9 | 0.00 | 0.00 | 0.00 | 62 | 724.3 |
| 20260906031344 | 63 | 142 | 6.1 | 13.0 | 0.00 | 0.00 | 0.00 | 61 | 724.3 |
| 20260906030844 | 63 | 153 | 7.0 | 13.0 | 0.00 | 0.00 | 0.00 | 61 | 724.2 |
| 20260906030124 | 63 | 153 | 7.0 | 13.0 | 0.00 | 0.00 | 0.00 | 60 | 724.2 |
| 20260906025623 | 63 | 117 | 5.2 | 12.2 | 0.00 | 0.00 | 0.00 | 58 | 724.2 |
| 20260906025122 | 63 | 112 | 4.3 | 8.7 | 0.00 | 0.00 | 0.00 | 56 | 724.0 |
| 20260906024623 | 63 | 110 | 4.3 | 8.7 | 0.00 | 0.00 | 0.00 | 52 | 724.0 |
| 20260906024123 | 64 | 48 | 6.1 | 9.6 | 0.00 | 0.00 | 0.00 | 51 | 723.9 |
| 20260906023625 | 64 | 54 | 7.8 | 14.8 | 0.00 | 0.00 | 0.00 | 50 | 723.9 |
| 20260906023118 | 65 | 47 | 9.6 | 16.5 | 0.00 | 0.00 | 0.00 | 48 | 723.9 |
| 20260906022619 | 65 | 46 | 7.8 | 16.5 | 0.00 | 0.00 | 0.00 | 46 | 723.8 |
| 20260906022119 | 66 | 42 | 6.1 | 13.0 | 0.00 | 0.00 | 0.00 | 44 | 723.7 |
| 20260906021619 | 66 | 46 | 7.0 | 11.3 | 0.00 | 0.00 | 0.00 | 44 | 723.7 |
| 20260906021119 | 66 | 25 | 6.1 | 11.3 | 0.00 | 0.00 | 0.00 | 45 | 723.6 |
| 20260906020620 | 66 | 64 | 4.3 | 10.4 | 0.00 | 0.00 | 0.00 | 45 | 723.6 |
| 20260906020119 | 66 | 42 | 4.3 | 8.7 | 0.00 | 0.00 | 0.00 | 44 | 723.5 |
| 20260906015619 | 66 | 22 | 5.2 | 8.7 | 0.00 | 0.00 | 0.00 | 44 | 723.5 |
| 20260906015120 | 66 | 34 | 4.3 | 7.8 | 0.00 | 0.00 | 0.00 | 44 | 723.6 |
| 20260906014842 | 66 | 24 | 4.3 | 7.8 | 0.00 | 0.00 | 0.00 | 45 | 723.5 |
| 20260906014120 | 66 | 54 | 3.5 | 7.8 | 0.00 | 0.00 | 0.00 | 45 | 723.5 |
| 20260906013618 | 66 | 38 | 2.6 | 7.0 | 0.00 | 0.00 | 0.00 | 45 | 723.5 |
| 20260906013120 | 66 | 355 | 3.5 | 6.1 | 0.00 | 0.00 | 0.00 | 45 | 723.6 |
| 20260906012618 | 66 | 29 | 3.5 | 6.1 | 0.00 | 0.00 | 0.00 | 45 | 723.6 |
| 20260906012121 | 66 | 21 | 3.5 | 5.2 | 0.00 | 0.00 | 0.00 | 45 | 723.6 |
| 20260906011620 | 66 | 21 | 3.5 | 5.2 | 0.00 | 0.00 | 0.00 | 44 | 723.6 |
| 20260906011118 | 66 | 0 | 3.5 | 5.2 | 0.00 | 0.00 | 0.00 | 44 | 723.6 |
| 20260906010619 | 67 | 28 | 4.3 | 6.1 | 0.00 | 0.00 | 0.00 | 44 | 723.6 |
| 20260906010117 | 67 | 36 | 3.5 | 6.1 | 0.00 | 0.00 | 0.00 | 43 | 723.6 |
| 20260906005616 | 67 | 21 | 2.6 | 5.2 | 0.00 | 0.00 | 0.00 | 43 | 723.6 |
| 20260906005116 | 67 | 9 | 2.6 | 4.3 | 0.00 | 0.00 | 0.00 | 43 | 723.7 |
| 20260906004616 | 67 | 57 | 3.5 | 7.0 | 0.00 | 0.00 | 0.00 | 43 | 723.8 |
| 20260906004112 | 67 | 192 | 3.5 | 7.0 | 0.00 | 0.00 | 0.00 | 45 | 723.8 |
| 20260906003829 | 68 | 166 | 2.6 | 5.2 | 0.00 | 0.00 | 0.00 | 45 | 723.7 |
| 20260906003327 | 69 | 163 | 2.6 | 5.2 | 0.00 | 0.00 | 0.00 | 46 | 723.8 |
| 20260906002610 | 69 | 132 | 1.7 | 6.1 | 0.00 | 0.00 | 0.00 | 41 | 723.8 |
| 20260906002111 | 70 | 281 | 0.9 | 6.1 | 0.00 | 0.00 | 0.00 | 41 | 723.8 |
| 20260906001609 | 70 | 87 | 1.7 | 3.5 | 0.00 | 0.00 | 0.00 | 41 | 723.8 |
| 20260906001322 | 70 | 100 | 3.5 | 7.8 | 0.00 | 0.00 | 0.00 | 40 | 723.7 |
| 20260906000601 | 71 | 84 | 2.6 | 7.8 | 0.00 | 0.00 | 0.00 | 40 | 723.7 |
| 20260906000059 | 71 | 90 | 1.7 | 7.0 | 0.00 | 0.00 | 0.00 | 40 | 723.7 |
| 20260905235559 | 71 | 0 | 2.6 | 5.2 | 0.00 | 0.00 | 0.00 | 40 | 723.7 |
| 20260905235059 | 71 | 89 | 3.5 | 7.0 | 0.00 | 0.00 | 0.00 | 40 | 723.7 |
| 20260905234557 | 71 | 88 | 2.6 | 7.0 | 0.00 | 0.00 | 0.00 | 40 | 723.8 |
| 20260905234056 | 71 | 113 | 2.6 | 7.8 | 0.00 | 0.00 | 0.00 | 41 | 723.7 |
| 20260905233555 | 70 | 85 | 4.3 | 7.8 | 0.00 | 0.00 | 0.00 | 40 | 723.7 |
| 20260905233053 | 70 | 84 | 4.3 | 11.3 | 0.00 | 0.00 | 0.00 | 40 | 723.6 |
| 20260905232810 | 70 | 63 | 4.3 | 11.3 | 0.00 | 0.00 | 0.00 | 41 | 723.6 |
| 20260905232048 | 70 | 28 | 3.5 | 7.8 | 0.00 | 0.00 | 0.00 | 40 | 723.6 |
| 20260905231547 | 70 | 62 | 2.6 | 4.3 | 0.00 | 0.00 | 0.00 | 43 | 723.6 |
| 20260905231040 | 69 | 33 | 3.5 | 6.1 | 0.00 | 0.00 | 0.00 | 44 | 723.6 |
| 20260905230540 | 68 | 5 | 3.5 | 6.1 | 0.00 | 0.00 | 0.00 | 44 | 723.7 |
| 20260905230040 | 68 | 337 | 3.5 | 6.1 | 0.00 | 0.00 | 0.00 | 44 | 723.6 |
| 20260905225759 | 67 | 10 | 4.3 | 7.8 | 0.00 | 0.00 | 0.00 | 45 | 723.6 |
| 20260905225040 | 67 | 0 | 5.2 | 8.7 | 0.00 | 0.00 | 0.00 | 44 | 723.7 |
| 20260905224541 | 67 | 331 | 4.3 | 8.7 | 0.00 | 0.00 | 0.00 | 45 | 723.6 |
| 20260905224040 | 67 | 355 | 4.3 | 7.8 | 0.00 | 0.00 | 0.00 | 45 | 723.7 |
| 20260905223539 | 68 | 10 | 3.5 | 7.8 | 0.00 | 0.00 | 0.00 | 45 | 723.7 |
| 20260905223038 | 68 | 13 | 3.5 | 7.0 | 0.00 | 0.00 | 0.00 | 44 | 723.7 |
| 20260905222539 | 69 | 355 | 4.3 | 8.7 | 0.00 | 0.00 | 0.00 | 44 | 723.7 |
| 20260905222035 | 69 | 55 | 5.2 | 8.7 | 0.00 | 0.00 | 0.00 | 42 | 723.7 |
| 20260905221532 | 69 | 67 | 4.3 | 7.8 | 0.00 | 0.00 | 0.00 | 41 | 723.6 |
| 20260905221033 | 69 | 41 | 4.3 | 7.8 | 0.00 | 0.00 | 0.00 | 41 | 723.6 |
| 20260905220532 | 70 | 5 | 4.3 | 9.6 | 0.00 | 0.00 | 0.00 | 41 | 723.7 |
| 20260905220032 | 70 | 44 | 5.2 | 9.6 | 0.00 | 0.00 | 0.00 | 41 | 723.7 |
| 20260905215752 | 70 | 31 | 5.2 | 9.6 | 0.00 | 0.00 | 0.00 | 42 | 723.8 |